Lancaster, PA

6:40 PM EST on February 09, 2016 (GMT -0500)
Lancaster

Weather History for KLNS - January, 2014

Change the Weather History Date:

Tuesday, January 14, 2014

  Actual Average Record
Temperature  
Mean Temperature 40 °F -  
Max Temperature 46 °F 38 °F 64 °F (2005)
Min Temperature 32 °F 19 °F 2 °F (1988)
Degree Days  
Heating Degree Days 24    
Moisture  
Dew Point 41 °F    
Average Humidity 94    
Maximum Humidity 100    
Minimum Humidity 63    
Precipitation  
Precipitation 0.22 in - - ()
Sea Level Pressure  
Sea Level Pressure 29.77 in    
Wind  
Wind Speed 3 mph (West)    
Max Wind Speed 7 mph    
Max Gust Speed -    
Visibility 3 miles    
Events Fog , Rain    
Averages and records for this station are not official NWS values.
T = Trace of Precipitation, MM = Missing Value Source: NWS Daily Summary

Daily Weather History Graph

Daily Weather History Graph

Search for Another Location

Airport or City:

Trip Planner

Search our weather history database for the weather conditions in past years. The results will help you decide how hot, cold, wet, or windy it might be!

Date:

Astronomy

Jan. 14, 2014 Rise Set
Actual Time 7:25 AM EST 5:03 PM EST
Civil Twilight 6:56 AM EST 5:32 PM EST
Nautical Twilight 6:22 AM EST 6:06 PM EST
Astronomical Twilight 5:49 AM EST 6:38 PM EST
Moon 4:06 PM EST (1/14) 5:58 AM EST (1/14)
Length of Visible Light 10h 36m
Length of Day
9h 37m
Waxing Gibbous, 98% of the Moon is Illuminated
Jan 14
Waxing Gibbous
Jan 15
Full
Jan 24
Last Quarter
Jan 30
New
Feb 6
First Quarter

Hourly Weather History & Observations

Time (EST) Temp. Windchill Dew Point Humidity Pressure Visibility Wind Dir Wind Speed Gust Speed Precip Events Conditions
12:53 AM 46.9 °F - 35.1 °F 63% 29.83 in 10.0 mi Calm Calm - N/A   Unknown
1:53 AM 45.0 °F 43.5 °F 36.0 °F 71% 29.82 in 10.0 mi South 3.5 mph - N/A   Unknown
2:53 AM 46.0 °F 43.1 °F 37.0 °F 71% 29.82 in 10.0 mi South 5.8 mph - 0.00 in Rain Light Rain
3:53 AM 45.0 °F 41.2 °F 37.9 °F 76% 29.80 in 10.0 mi SSW 6.9 mph - 0.00 in   Unknown
4:53 AM 45.0 °F 41.2 °F 39.9 °F 82% 29.78 in 10.0 mi SSW 6.9 mph - 0.01 in Rain Light Rain
5:53 AM 43.0 °F - 39.0 °F 86% 29.76 in 10.0 mi Calm Calm - 0.00 in   Overcast
6:53 AM 43.0 °F - 39.9 °F 89% 29.78 in 8.0 mi Calm Calm - 0.00 in Rain Light Rain
7:20 AM 44.6 °F 43.1 °F 41.0 °F 87% 29.78 in 10.0 mi Variable 3.5 mph - 0.00 in Rain Light Rain
7:53 AM 46.0 °F - 43.0 °F 89% 29.78 in 10.0 mi Calm Calm - 0.00 in   Overcast
8:53 AM 44.1 °F - 42.1 °F 93% 29.77 in 6.0 mi Calm Calm - 0.00 in   Overcast
9:53 AM 44.1 °F - 43.0 °F 96% 29.77 in 2.5 mi Calm Calm - 0.02 in Rain Light Rain
10:02 AM 44.6 °F - 42.8 °F 93% 29.77 in 1.2 mi Calm Calm - 0.00 in Rain Light Rain
10:24 AM 44.6 °F - 44.6 °F 100% 29.77 in 2.0 mi Calm Calm - 0.02 in Rain Light Rain
10:53 AM 45.0 °F - 44.1 °F 97% 29.76 in 2.0 mi Calm Calm - 0.02 in Rain Light Rain
11:04 AM 44.6 °F - 44.6 °F 100% 29.76 in 1.8 mi Calm Calm - 0.01 in Rain Light Rain
11:28 AM 44.6 °F - 44.6 °F 100% 29.74 in 0.8 mi Calm Calm - 0.01 in Rain Light Rain
11:40 AM 46.4 °F - 44.6 °F 93% 29.73 in 1.5 mi Calm Calm - 0.01 in   Overcast
11:53 AM 45.0 °F - 44.1 °F 97% 29.73 in 1.2 mi Calm Calm - 0.01 in   Overcast
12:03 PM 44.6 °F - 44.6 °F 100% 29.72 in 0.5 mi Calm Calm - 0.00 in Fog , Rain Light Rain
12:18 PM 44.6 °F 43.1 °F 44.6 °F 100% 29.72 in 1.0 mi West 3.5 mph - 0.01 in Rain Light Rain
12:31 PM 44.6 °F 42.2 °F 44.6 °F 100% 29.72 in 2.0 mi WNW 4.6 mph - 0.03 in Rain Rain
12:38 PM 44.6 °F 41.4 °F 44.6 °F 100% 29.73 in 1.2 mi WNW 5.8 mph - 0.05 in Rain Rain
12:53 PM 45.0 °F 42.6 °F 44.1 °F 97% 29.73 in 1.5 mi WNW 4.6 mph - 0.07 in Rain Rain
1:15 PM 44.6 °F 41.4 °F 42.8 °F 93% 29.72 in 2.0 mi WNW 5.8 mph - 0.02 in Rain Light Rain
1:46 PM 44.6 °F 40.7 °F 42.8 °F 93% 29.74 in 3.0 mi West 6.9 mph - 0.05 in Rain Light Rain
1:53 PM 44.1 °F 40.8 °F 43.0 °F 96% 29.74 in 3.0 mi West 5.8 mph - 0.05 in Rain Light Rain
2:04 PM 44.6 °F 41.4 °F 42.8 °F 93% 29.73 in 2.5 mi West 5.8 mph - 0.01 in Rain Light Rain
2:32 PM 44.6 °F 43.1 °F 42.8 °F 93% 29.72 in 4.0 mi West 3.5 mph - 0.03 in Rain Light Rain
2:53 PM 44.1 °F - 43.0 °F 96% 29.72 in 3.0 mi Calm Calm - 0.03 in Rain Light Rain
3:24 PM 44.6 °F 43.1 °F 42.8 °F 93% 29.69 in 2.0 mi ESE 3.5 mph - 0.01 in   Overcast
3:32 PM 44.6 °F - 42.8 °F 93% 29.70 in 1.8 mi Calm Calm - 0.01 in   Overcast
3:46 PM 44.6 °F - 42.8 °F 93% 29.71 in 2.0 mi Calm Calm - 0.01 in   Overcast
3:53 PM 44.1 °F - 42.1 °F 93% 29.72 in 3.0 mi Calm Calm - 0.01 in   Overcast
4:15 PM 42.8 °F 38.6 °F 42.8 °F 100% 29.73 in 2.0 mi WNW 6.9 mph - 0.00 in Rain Light Rain
4:44 PM 42.8 °F 40.1 °F 42.8 °F 100% 29.74 in 3.0 mi NW 4.6 mph - 0.00 in   Overcast
4:46 PM 42.8 °F 40.1 °F 42.8 °F 100% 29.74 in 2.5 mi NW 4.6 mph - 0.00 in   Overcast
4:53 PM 43.0 °F - 42.1 °F 97% 29.75 in 2.0 mi Calm Calm - 0.00 in Rain Light Rain
5:25 PM 42.8 °F 39.3 °F 42.8 °F 100% 29.77 in 3.0 mi WNW 5.8 mph - 0.00 in   Overcast
5:41 PM 42.8 °F 41.1 °F 42.8 °F 100% 29.77 in 2.5 mi WNW 3.5 mph - 0.00 in   Overcast
5:53 PM 42.1 °F 38.4 °F 41.0 °F 96% 29.78 in 3.0 mi West 5.8 mph - 0.00 in   Overcast
6:31 PM 41.0 °F 38.0 °F 39.2 °F 93% 29.80 in 2.5 mi West 4.6 mph - N/A   Scattered Clouds
6:39 PM 39.2 °F 35.9 °F 39.2 °F 100% 29.80 in 0.8 mi West 4.6 mph - N/A   Mostly Cloudy
6:44 PM 39.2 °F 35.9 °F 39.2 °F 100% 29.81 in 0.2 mi West 4.6 mph - N/A Fog Fog
6:53 PM 39.0 °F 36.8 °F 39.0 °F 100% 29.82 in 0.2 mi WNW 3.5 mph - N/A Fog Fog
7:45 PM 37.4 °F - 37.4 °F 100% 29.83 in 0.2 mi Calm Calm - N/A Fog Fog
7:53 PM 37.9 °F - 37.0 °F 97% 29.85 in 0.2 mi Calm Calm - N/A Fog Fog
8:53 PM 36.0 °F 33.3 °F 35.1 °F 97% 29.87 in 0.2 mi WNW 3.5 mph - N/A Fog Fog
9:53 PM 36.0 °F 32.1 °F 36.0 °F 100% 29.88 in 0.2 mi West 4.6 mph - N/A Fog Fog
10:53 PM 35.1 °F 30.1 °F 35.1 °F 100% 29.90 in 0.2 mi WSW 5.8 mph - N/A Fog Fog
11:53 PM 32.0 °F - 32.0 °F 100% 29.90 in 0.2 mi Calm Calm - N/A Fog Fog